LIRS

Details ICAO LIRS (GRS)
Name GROSSETO
Region Italy
Timezone Europe/Rome (UTC+2.0)
Plans Departing 38
Arriving 43
Stats Elevation 15 ft / 5 m (AMSL)
Location 42.760275° 11.071980°
Runways 2
Magnetic Variation 2.858° E
Sunrise 2018-05-27 03:44:38 UTC / 2018-05-27 05:44:38 Local
Sunset 2018-05-27 18:43:59 UTC / 2018-05-27 20:43:59 Local
Advertisement - Login to hide

Runways

ID Width Length Bearing (true) Bearing (mag) Surface Threshold Offset Overrun Length
03 148 ft / 45 m 9,826 ft / 2,995 m 30.87° 28.01° Asphalt 317 ft / 97 m 0 ft / 0 m
03R 80 ft / 24 m 7,731 ft / 2,356 m 30.70° 27.84° Asphalt 0 ft / 0 m 1,091 ft / 333 m
21 148 ft / 45 m 9,826 ft / 2,995 m 210.88° 208.02° Asphalt 0 ft / 0 m 0 ft / 0 m
21L 80 ft / 24 m 7,731 ft / 2,356 m 210.71° 207.85° Asphalt 0 ft / 0 m 875 ft / 267 m

Map

Weather


0- 5 10 15 20 25 30 35+ Temperature / ° C

Clouds and Precipitation
Forecast for 2018-05-27 12:00 UTC. Updated an hour ago

Ground ~20,000 ft ~40,000 ft Winds

METAR

LIRS 271155Z 21008KT 9999 FEW025 25/20 Q1017

TAF

Not found

Frequencies

Tower 128.10 MHz TWR
Approach 122.10 MHz APP
Tower 122.10 MHz TWR
Approach 124.52 MHz APP
Warning: Do not use this data for real-world aviation or navigation. No guarantee of current accuracy is given.